STARLINK-1361, 45567

Orbit data source: Space-Track

STARLINK-1361, 45567 is a payload satellite owned by SpaceX/Seattle (US) in LEO that was launched on Wed, 22 Apr 2020 UTC via an FALCON 9 launch vehicle from the Air Force Eastern Test Range (AFETR). Payload-class satellites include a variety of spacecraft equipped with specific instruments for various scientific and technological missions. These include communications satellites like Starlink; space stations such as the ISS; scientific satellites like the Hubble; Earth observation satellites from companies like Planet Labs, Umbra, and HawkEye 360; GPS; miniature CubeSats for education and research; and military/defense satellites.

Loading next visibility...
Identifier
45567, 2020-025AN
Orbit
LEO
Country
Flag of USUS
Related business
Manufacturer
SpaceX/Seattle
Mission
Operational Commercial Communications
Bus & Motor
STARLINK, Unknown motor
Mass
260 kg wet, ~248 kg dry
Launch date (UTC)
2020-04-22 (6 years ago)
Launch vehicle
FALCON 9
Launch site
Air Force Eastern Test Range (AFETR)
Object type
Payload
Rocket body
Debris
Shape & HBR
Box + 1 Pan, 10.1 m
Radar Cross Section
13.562 m², Large (>1 m²)

Expand to show TLE details & history
Last TLE update: 4 hours ago

TLE from 4 hours ago
0 STARLINK-1361
1 45567U 20025AN  26036.91670139  .00162478  00000-0  37695-2 0  9999
2 45567  53.0539 225.1434 0000888 154.0929 181.0807 15.41309799  5748
Epoch: 2026-02-05T22:00Z
TLE epoch observation values (Epoch: 2026-02-05T22:00:03.000Z)
Latitude
-19.78847°
Longitude
103.45854°
Altitude
448.327 km
Speed
7.643 km/s
True Right ascension
13h 58m 07s
True Declination
-19° 40' 27"
Sunlit
Object was in daylight at epoch
Visualization orbit readout
Latitude
Unknown
Longitude
Unknown
Altitude
Unknown
Speed
Unknown
Apparent Right ascension
Unknown
Apparent Declination
Unknown
Sunlit
N/A
Visualization observer readout
Local Sidereal Time
04:26:33
Azimuth
Unknown
Elevation
Unknown
Doppler factor
Unknown
Orbital elements
Apogee altitude
443.123 km
Perigee altitude
441.912 km
Semi-major axis
6,820.654 km
Eccentricity
0.00009
Inclination
53.0539°
RAAN
225.1434°
Arg. of periapsis
154.0929°
True anomaly
181.08051°
Mean anomaly
181.0807°
Eccentric anomaly
181.0806°
Mean motion
3.85305 °/min
Orbital period
93.43 mins
BSTAR
0.0037695
Loading maneuver chart data...
Computing Atmospheric mass density...
Loading historical data...
Loading historical data...
Loading historical data...
Loading historical data...
Loading historical data...
Loading historical data...
Loading historical data...

Documentation

Showing up to 5 results
|